TimeCDT,TemperatureF,Dew PointF,Humidity,Sea Level PressureIn,VisibilityMPH,Wind Direction,Wind SpeedMPH,Gust SpeedMPH,PrecipitationIn,Events,Conditions,WindDirDegrees,DateUTC
12:05 AM,46.4,42.8,87,30.16,9.0,North,5.8,-,N/A,Rain,Light Rain,360,2012-10-07 05:05:00
12:25 AM,46.4,42.8,87,30.17,9.0,NW,4.6,-,0.01,Rain,Light Rain,310,2012-10-07 05:25:00
12:45 AM,46.4,44.6,93,30.18,9.0,NW,8.1,-,0.01,Rain,Light Rain,310,2012-10-07 05:45:00
1:05 AM,46.4,44.6,93,30.18,10.0,NW,5.8,-,N/A,Rain,Light Rain,310,2012-10-07 06:05:00
1:25 AM,46.4,44.6,93,30.17,10.0,NW,6.9,-,N/A,,Overcast,310,2012-10-07 06:25:00
1:45 AM,46.4,44.6,93,30.18,10.0,WNW,5.8,-,N/A,Rain,Light Rain,300,2012-10-07 06:45:00
2:05 AM,46.4,44.6,93,30.17,8.0,NNW,4.6,-,N/A,Rain,Light Rain,340,2012-10-07 07:05:00
2:25 AM,46.4,44.6,93,30.17,10.0,NNW,4.6,-,N/A,,Overcast,340,2012-10-07 07:25:00
2:45 AM,46.4,44.6,93,30.17,10.0,NW,4.6,-,N/A,,Overcast,320,2012-10-07 07:45:00
3:05 AM,46.4,44.6,93,30.17,10.0,NNW,4.6,-,N/A,,Overcast,330,2012-10-07 08:05:00
3:25 AM,46.4,44.6,93,30.16,10.0,North,5.8,-,N/A,,Overcast,350,2012-10-07 08:25:00
3:45 AM,46.4,44.6,93,30.15,10.0,North,4.6,-,N/A,,Overcast,360,2012-10-07 08:45:00
4:05 AM,46.4,44.6,93,30.16,10.0,NNW,5.8,-,N/A,,Overcast,330,2012-10-07 09:05:00
4:25 AM,46.4,42.8,87,30.17,10.0,NNW,6.9,-,N/A,,Overcast,340,2012-10-07 09:25:00
4:45 AM,46.4,42.8,87,30.17,10.0,North,8.1,-,N/A,,Overcast,350,2012-10-07 09:45:00
5:05 AM,46.4,42.8,87,30.17,10.0,North,5.8,-,N/A,,Overcast,350,2012-10-07 10:05:00
5:25 AM,46.4,41.0,81,30.18,10.0,NNW,8.1,-,N/A,,Overcast,340,2012-10-07 10:25:00
5:45 AM,46.4,42.8,87,30.19,10.0,North,6.9,-,N/A,,Overcast,350,2012-10-07 10:45:00
6:05 AM,46.4,41.0,81,30.19,10.0,NNW,9.2,-,N/A,,Overcast,340,2012-10-07 11:05:00
6:25 AM,46.4,41.0,81,30.20,10.0,NNW,6.9,-,N/A,,Overcast,340,2012-10-07 11:25:00
6:45 AM,46.4,41.0,81,30.19,10.0,NNW,8.1,-,N/A,,Overcast,340,2012-10-07 11:45:00
7:05 AM,44.6,41.0,87,30.20,10.0,North,5.8,-,N/A,,Overcast,350,2012-10-07 12:05:00
7:25 AM,46.4,41.0,81,30.22,10.0,NW,5.8,-,N/A,,Overcast,320,2012-10-07 12:25:00
7:45 AM,46.4,39.2,76,30.22,10.0,North,6.9,-,N/A,,Overcast,350,2012-10-07 12:45:00
8:05 AM,46.4,39.2,76,30.23,10.0,NNW,6.9,-,N/A,,Overcast,340,2012-10-07 13:05:00
8:25 AM,46.4,39.2,76,30.23,10.0,North,6.9,-,N/A,,Overcast,350,2012-10-07 13:25:00
8:45 AM,48.2,39.2,71,30.24,10.0,North,9.2,16.1,N/A,,Overcast,360,2012-10-07 13:45:00
9:25 AM,50.0,39.2,66,30.25,10.0,North,10.4,-,N/A,,Partly Cloudy,360,2012-10-07 14:25:00
9:45 AM,50.0,37.4,62,30.25,10.0,NNE,9.2,-,N/A,,Scattered Clouds,20,2012-10-07 14:45:00
10:05 AM,51.8,37.4,58,30.25,10.0,NNE,8.1,-,N/A,,Mostly Cloudy,20,2012-10-07 15:05:00
10:25 AM,51.8,37.4,58,30.25,10.0,North,9.2,-,N/A,,Partly Cloudy,10,2012-10-07 15:25:00
10:45 AM,53.6,37.4,54,30.24,10.0,North,6.9,-,N/A,,Clear,10,2012-10-07 15:45:00
11:05 AM,51.8,35.6,54,30.24,10.0,ENE,4.6,-,N/A,,Clear,60,2012-10-07 16:05:00
11:25 AM,53.6,35.6,51,30.23,10.0,ENE,3.5,-,N/A,,Clear,60,2012-10-07 16:25:00
11:45 AM,53.6,37.4,54,30.24,10.0,ESE,3.5,-,N/A,,Clear,110,2012-10-07 16:45:00
12:05 PM,55.4,37.4,51,30.22,10.0,North,3.5,-,N/A,,Clear,350,2012-10-07 17:05:00
12:25 PM,55.4,37.4,51,30.21,10.0,Calm,Calm,-,N/A,,Clear,0,2012-10-07 17:25:00
12:45 PM,57.2,37.4,48,30.22,10.0,North,6.9,-,N/A,,Clear,10,2012-10-07 17:45:00
1:05 PM,57.2,37.4,48,30.21,10.0,NW,5.8,-,N/A,,Clear,320,2012-10-07 18:05:00
1:25 PM,57.2,35.6,44,30.20,10.0,North,9.2,-,N/A,,Clear,350,2012-10-07 18:25:00
1:45 PM,55.4,35.6,47,30.20,10.0,NNW,8.1,-,N/A,,Clear,340,2012-10-07 18:45:00
2:25 PM,57.2,35.6,44,30.18,10.0,NNE,8.1,-,N/A,,Clear,20,2012-10-07 19:25:00
2:45 PM,57.2,37.4,48,30.18,10.0,NNW,5.8,-,N/A,,Clear,330,2012-10-07 19:45:00
3:05 PM,59.0,37.4,45,30.17,10.0,North,8.1,16.1,N/A,,Clear,10,2012-10-07 20:05:00
3:25 PM,59.0,35.6,42,30.16,10.0,North,10.4,-,N/A,,Clear,350,2012-10-07 20:25:00
3:45 PM,57.2,35.6,44,30.15,10.0,North,10.4,-,N/A,,Clear,350,2012-10-07 20:45:00
4:05 PM,59.0,33.8,39,30.15,10.0,NNW,5.8,-,N/A,,Clear,340,2012-10-07 21:05:00
4:25 PM,57.2,35.6,44,30.14,10.0,NNW,12.7,16.1,N/A,,Clear,340,2012-10-07 21:25:00
4:45 PM,59.0,35.6,42,30.16,10.0,North,6.9,-,N/A,,Clear,360,2012-10-07 21:45:00
5:05 PM,57.2,33.8,41,30.16,10.0,North,6.9,-,N/A,,Clear,350,2012-10-07 22:05:00
5:25 PM,57.2,33.8,41,30.16,10.0,North,6.9,-,N/A,,Clear,10,2012-10-07 22:25:00
5:45 PM,55.4,35.6,47,30.15,10.0,North,6.9,-,N/A,,Clear,10,2012-10-07 22:45:00
6:05 PM,55.4,37.4,51,30.15,10.0,North,4.6,-,N/A,,Clear,360,2012-10-07 23:05:00
6:25 PM,53.6,37.4,54,30.16,10.0,North,5.8,-,N/A,,Clear,350,2012-10-07 23:25:00
6:45 PM,50.0,37.4,62,30.16,10.0,NNW,4.6,-,N/A,,Clear,340,2012-10-07 23:45:00
7:05 PM,50.0,37.4,62,30.16,10.0,NNW,3.5,-,N/A,,Clear,330,2012-10-08 00:05:00
7:25 PM,48.2,39.2,71,30.16,10.0,NW,3.5,-,N/A,,Clear,320,2012-10-08 00:25:00
7:45 PM,48.2,41.0,76,30.17,10.0,WNW,4.6,-,N/A,,Clear,300,2012-10-08 00:45:00
8:05 PM,46.4,41.0,81,30.17,10.0,Calm,Calm,-,N/A,,Clear,0,2012-10-08 01:05:00
8:25 PM,48.2,41.0,76,30.18,10.0,WNW,4.6,-,N/A,,Partly Cloudy,300,2012-10-08 01:25:00
8:45 PM,48.2,41.0,76,30.17,10.0,Calm,Calm,-,N/A,,Clear,0,2012-10-08 01:45:00
9:05 PM,48.2,42.8,82,30.17,10.0,North,3.5,-,N/A,,Mostly Cloudy,360,2012-10-08 02:05:00
9:25 PM,48.2,44.6,87,30.18,10.0,Calm,Calm,-,N/A,Rain,Light Rain,0,2012-10-08 02:25:00
9:45 PM,48.2,44.6,87,30.19,10.0,Calm,Calm,-,N/A,,Overcast,0,2012-10-08 02:45:00
10:05 PM,48.2,44.6,87,30.19,10.0,Calm,Calm,-,N/A,Rain,Light Rain,0,2012-10-08 03:05:00
10:25 PM,48.2,44.6,87,30.18,10.0,Calm,Calm,-,N/A,,Overcast,0,2012-10-08 03:25:00
10:45 PM,48.2,44.6,87,30.18,10.0,Calm,Calm,-,N/A,,Overcast,0,2012-10-08 03:45:00
11:05 PM,48.2,44.6,87,30.19,10.0,Calm,Calm,-,N/A,,Overcast,0,2012-10-08 04:05:00
11:25 PM,48.2,44.6,87,30.19,9.0,Calm,Calm,-,N/A,Rain,Light Rain,0,2012-10-08 04:25:00
11:45 PM,48.2,44.6,87,30.17,10.0,North,4.6,-,0.01,Rain,Light Rain,10,2012-10-08 04:45:00